TimeEDT,TemperatureF,Dew PointF,Humidity,Sea Level PressureIn,VisibilityMPH,Wind Direction,Wind SpeedMPH,Gust SpeedMPH,PrecipitationIn,Events,Conditions,WindDirDegrees,DateUTC
12:56 AM,73.0,70.0,90,29.87,6.0,SSE,5.8,-,N/A,,Partly Cloudy,160,2012-09-08 04:56:00
1:10 AM,71.6,69.8,94,29.88,6.0,Calm,Calm,-,N/A,,Mostly Cloudy,0,2012-09-08 05:10:00
1:56 AM,73.4,71.6,94,29.90,6.0,SSW,3.5,-,N/A,,Overcast,200,2012-09-08 05:56:00
2:56 AM,73.0,71.1,93,29.90,6.0,SSE,3.5,-,N/A,,Overcast,160,2012-09-08 06:56:00
3:24 AM,71.6,69.8,94,29.89,5.0,SE,4.6,-,N/A,,Mostly Cloudy,140,2012-09-08 07:24:00
3:56 AM,73.0,70.0,90,29.88,5.0,SSE,4.6,-,N/A,,Overcast,160,2012-09-08 07:56:00
4:03 AM,73.4,69.8,88,29.88,5.0,SSE,4.6,-,N/A,,Overcast,160,2012-09-08 08:03:00
4:56 AM,72.0,70.0,93,29.87,5.0,Calm,Calm,-,N/A,,Overcast,0,2012-09-08 08:56:00
5:16 AM,71.6,69.8,94,29.87,5.0,ESE,3.5,-,N/A,,Overcast,120,2012-09-08 09:16:00
5:49 AM,71.6,69.8,94,29.86,3.0,South,10.4,-,N/A,,Scattered Clouds,170,2012-09-08 09:49:00
5:56 AM,72.0,70.0,93,29.86,3.0,South,11.5,-,N/A,,Partly Cloudy,170,2012-09-08 09:56:00
6:28 AM,71.6,69.8,94,29.86,2.5,South,8.1,-,N/A,,Clear,180,2012-09-08 10:28:00
6:47 AM,71.6,69.8,94,29.86,3.0,South,10.4,-,N/A,,Clear,180,2012-09-08 10:47:00
6:56 AM,72.0,70.0,93,29.86,5.0,South,9.2,-,N/A,,Clear,170,2012-09-08 10:56:00
7:52 AM,73.4,69.8,88,29.86,7.0,SSE,5.8,-,N/A,,Mostly Cloudy,160,2012-09-08 11:52:00
7:56 AM,73.0,70.0,90,29.86,7.0,South,5.8,-,N/A,,Mostly Cloudy,170,2012-09-08 11:56:00
8:56 AM,75.0,70.0,84,29.84,8.0,SSE,8.1,-,N/A,,Mostly Cloudy,160,2012-09-08 12:56:00
9:56 AM,77.0,71.1,82,29.83,8.0,South,12.7,-,N/A,,Mostly Cloudy,170,2012-09-08 13:56:00
10:10 AM,77.0,71.6,83,29.82,8.0,South,11.5,-,N/A,,Scattered Clouds,170,2012-09-08 14:10:00
10:56 AM,78.1,71.1,79,29.81,8.0,South,11.5,-,N/A,,Partly Cloudy,170,2012-09-08 14:56:00
11:56 AM,78.1,70.0,76,29.78,8.0,South,16.1,-,N/A,,Mostly Cloudy,170,2012-09-08 15:56:00
12:05 PM,80.6,71.6,74,29.77,8.0,SSE,15.0,-,N/A,,Mostly Cloudy,160,2012-09-08 16:05:00
12:56 PM,79.0,71.1,77,29.76,8.0,SSE,18.4,-,N/A,,Mostly Cloudy,160,2012-09-08 16:56:00
1:34 PM,78.8,71.6,78,29.73,7.0,South,18.4,-,N/A,,Overcast,170,2012-09-08 17:34:00
1:56 PM,78.1,72.0,81,29.72,7.0,SSE,17.3,-,N/A,,Overcast,160,2012-09-08 17:56:00
2:56 PM,79.0,72.0,79,29.70,7.0,South,18.4,-,N/A,,Mostly Cloudy,170,2012-09-08 18:56:00
3:32 PM,78.8,71.6,78,29.68,6.0,South,18.4,-,N/A,,Haze,170,2012-09-08 19:32:00
3:41 PM,78.8,71.6,78,29.68,6.0,South,18.4,-,N/A,,Haze,180,2012-09-08 19:41:00
3:52 PM,78.8,71.6,78,29.67,6.0,South,18.4,-,N/A,,Haze,180,2012-09-08 19:52:00
3:56 PM,78.1,72.0,81,29.68,6.0,South,19.6,-,N/A,,Haze,180,2012-09-08 19:56:00
4:56 PM,77.0,72.0,84,29.65,6.0,South,19.6,-,N/A,,Haze,170,2012-09-08 20:56:00
5:16 PM,75.2,71.6,89,29.65,5.0,South,18.4,-,N/A,,Overcast,180,2012-09-08 21:16:00
5:56 PM,75.9,72.0,87,29.64,5.0,South,18.4,-,N/A,,Mostly Cloudy,180,2012-09-08 21:56:00
6:03 PM,75.2,71.6,89,29.64,5.0,South,17.3,-,N/A,,Mostly Cloudy,180,2012-09-08 22:03:00
6:56 PM,75.9,72.0,87,29.64,5.0,South,15.0,-,N/A,,Mostly Cloudy,190,2012-09-08 22:56:00
7:56 PM,77.0,72.0,84,29.65,7.0,SSW,17.3,26.5,N/A,,Overcast,200,2012-09-08 23:56:00
8:56 PM,75.9,69.1,79,29.67,4.0,WSW,16.1,29.9,0.01,Rain,Light Rain,240,2012-09-09 00:56:00
9:23 PM,71.6,68.0,88,29.69,5.0,WNW,6.9,-,0.11,Rain,Light Rain,290,2012-09-09 01:23:00
9:56 PM,71.1,68.0,90,29.70,5.0,WNW,6.9,-,0.12,Rain,Light Rain,300,2012-09-09 01:56:00
10:56 PM,70.0,66.0,87,29.71,10.0,NW,8.1,-,0.00,,Overcast,320,2012-09-09 02:56:00
11:56 PM,66.2,60.8,83,29.73,10.0,NW,6.9,-,N/A,,Mostly Cloudy,320,2012-09-09 03:56:00